Starlink 4314

operational
NORAD ID: 53056 Int'l Des: 2022-077 Owner: SPXS Country: US Constellation: starlink
LEOCIRCULARRETROGRADESSO

Starlink 4314について

説明を読み込み中...

リアルタイム位置

3D地球を読み込み中...

次回通過

高度履歴

Altitude vs Time

uPlot chart will show altitude changes over time

軌道要素

1 53056U 22077P 25351.31234451 -.00000957 00000-0 -62161-4 0 9999
2 53056 97.6021 170.0186 0001719 89.3497 270.7927 15.05636037188587
Epoch: Dec 17, 2025 • Age: 6 hours

現在のステータス

高度 559.1 km
速度 7.58 km/s
衛星直下点 -24.11°S, 119.29°W
打ち上げ日 Jul 11, 2022
運用期間 3.4 years
タイプ internet

技術仕様

分類 Payload
質量 297.00 kg
乾燥質量 275.00 kg
総質量 297.00 kg
長さ 0.20 m
直径 2.80 m
スパン 9.00 m
形状 Box + pan
製造者 SPXS
バスタイプ Starlink
フェーズステータス In Orbit
所有者/国 SPXS/US

大規模コンステレーション

Loading constellations...